Regional Weather Roundup
Issued by NWS Jackson, KY

Home | Current Version | Previous Version | Graphics & Text | Print | Product List | Glossary On
Versions: 1 2 3 4 5 6 7 8 9 10 11 12 13 14 15 16 17 18 19 20 21 22 23 24 25 26 27 28 29 30 31 32 33 34 35 36 37 38 39 40 41 42 43 44 45 46 47 48 49 50
000
ASUS43 KJKL 181110
RWRJKL

EAST KENTUCKY HOURLY WEATHER ROUNDUP
NATIONAL WEATHER SERVICE JACKSON KY
700 AM EDT SAT APR 18 2015

NOTE: "FAIR" INDICATES FEW OR NO CLOUDS BELOW 12,000 FEET WITH
NO SIGNIFICANT WEATHER AND/OR OBSTRUCTIONS TO VISIBILITY.

* THESE REPORTS ARE NOT UNDER NWS QUALITY CONTROL AND MAY NOT
  REPORT WEATHER SUCH AS PRECIPITATION AND FOG.

KYZ079-080-083-085-087-088-110-112-115-119-120-181200
...EASTERN KENTUCKY...

CITY           SKY/WX    TMP DP  RH WIND       PRES   REMARKS
JACKSON        CLEAR     58  49  72 CALM      30.04S
LONDON         CLEAR     55  50  83 CALM      30.03R
SOMERSET*      CLEAR     50  50 100 CALM      30.05R FOG
MONTICELLO*    FOG       51  51 100 CALM      30.07R VSB<1/4
MIDDLESBORO*   FOG       53  53 100 CALM      30.04R VSB<1/4
HARLAN APT*    CLOUDY    54  54 100 CALM      30.04S VSB<1/4
HAZARD APT*      N/A     54  54 100 CALM      30.04R
PIKEVILLE APT* CLEAR     55  55 100 CALM      30.04S
BIG SANDY*     SUNNY     55  54  97 CALM      30.04F FOG
MOREHEAD APT*  FOG       54  54 100 CALM      30.06S VSB 1/4
$$

KYZ035-036-041-042-044-050-067-078-099-181200
...CENTRAL KENTUCKY...

CITY           SKY/WX    TMP DP  RH WIND       PRES   REMARKS
MT STERLING*   PTCLDY    50  50 100 CALM      30.05S FOG
FLEMING/MASON* CLEAR     50  50 100 CALM      30.05S FOG
DANVILLE*      PTCLDY    50  50 100 CALM      30.05R
RICHMOND*      PTCLDY    54  52  94 CALM      30.03S
LEXINGTON      CLEAR     54  50  86 E3        30.04S
FRANKFORT      PTCLDY    49  47  93 CALM      30.03R
$$

KYZ091>093-OHZ055-061-077-WVZ005-015-034-035-042-181200
...SOUTHERN OHIO/WEST VIRGINIA...

CITY           SKY/WX    TMP DP  RH WIND       PRES   REMARKS
COVINGTON      PTCLDY    51  43  74 CALM      30.04S
COLUMBUS       PTCLDY    47  43  86 CALM      30.05R
DAYTON         PTCLDY    52  45  77 NE3       30.06S
WILMINGTON     CLEAR     48  41  76 NE3       30.05R
HUNTINGTON     CLEAR     52  50  93 N3        30.03S
CHARLESTON     PTCLDY    52  51  97 CALM      30.04R FOG
PINEVILLE*     CLEAR     49  49 100 MISG      30.11S FOG
BECKLEY        CLEAR     51  49  92 E3        30.08S
BLUEFIELD      CLEAR     56  49  77 CALM      30.09S
$$

VAZ002-007-008-TNZ017-027-036-066-071-181200
...SOUTHWEST VIRGINIA/EAST TENNESSEE...

CITY           SKY/WX    TMP DP  RH WIND       PRES   REMARKS
WISE*          CLEAR     57  50  77 CALM      30.08S
JONESVILLE*    FOG       50  50 100 CALM      30.05S VSB 1/2
ABINGDON*      CLEAR     55  55 100 CALM      30.06S FOG
BRISTOL        FOG       52  52 100 CALM      30.04S VSB 1/8
KNOXVILLE      FOG       58  57  97 NW6       30.01R VSB 3/4
OAK RIDGE      FOG       58  57  97 CALM      30.03R VSB 1/4
CROSSVILLE     FOG       53  51  93 CALM      30.05R VSB 1/2
NASHVILLE      CLOUDY    56  55  97 CALM      30.03R
$$

...KEY TO REMARKS...
VSB - VISIBILITY IN MILES
WCI - WIND CHILL INDEX
HX  - HEAT INDEX

$$


USA.gov is the U.S. government's official web portal to all federal, state and local government web resources and services.